Voltar ao catálogo

FLOCK 4H 11

AtivoCiênciaSSO
NORAD 66714·PAYLOAD·🇺🇸 United States

Lançado Nov 28, 2025 de Vandenberg Space Force Base

Loading…

Próximas Passagens (próximas 24 horas)

TLE

AtualizadoSource: Space-Track

Época: Sep 14, 2026, 03:36 UTC

1 66714U 25276BA  26257.15063732  .00012767  00000-0  51807-3 0  9992
2 66714  97.4122 330.1000 0003918  74.5836 285.5834 15.24734196 43994

Acompanhe FLOCK 4H 11 em tempo real com AllMySat

Download on the App Store